Home   Weather   Burgdorf   Past weeks

Flag for Switzerland Past Weather in Burgdorf, Bern, Switzerland — Yesterday and Last 2 Weeks

Now
50 °F

Clear.


Feels Like: 50 °F
Forecast: 43 / 56 °F
Wind: 1 mph from North

Location: Bern / Belp

Current Time: Oct 1, 2016 at 5:20:43 AM

Latest Report: Oct 1, 2016 at 4:50 AM


Visibility: 10 mi

Pressure: 29.95 "Hg (28.06 "Hg at 539m altitude)

Humidity: 94%

Dew Point: 48 °F

Location of BurgdorfLocation

Past Weather in Burgdorf — Graph

°F

Burgdorf Temperature Yesterday

Maximum temperature yesterday: 75 °F (at 3:50 PM)
Minimum temperature yesterday: 43 °F (at 4:50 AM)
Average temperature yesterday: 57 °F

High & Low Weather Summary for the Past Weeks

 TemperatureHumidityPressure
High75 °F (Sep 29, 2:50 PM)100% (Sep 16, 6:20 AM)30.48 "Hg (Sep 16, 6:20 AM)
Low43 °F (Sep 22, 2:20 AM)36% (Sep 29, 3:50 PM)29.95 "Hg (Sep 18, 6:20 AM)
Average56 °F85%30.15 "Hg
* Reported Sep 16 4:20 AM — Oct 1 4:20 AM, Burgdorf, Weather by CustomWeather, © 2016

Note: Actual official high and low records may vary slightly from our data, if they occured in-between our weather recording intervals... More about our weather records

Advertising

Burgdorf Weather History for the Previous 24 Hours

Scroll right to see more
 ConditionsComfort  
Time TempWeatherWind HumidityBarometerVisibility
4:20 AM
Sat, Oct 1
50 °FClear.2 mph94%29.95 "Hg10 mi
3:50 AM50 °FClear.2 mph94%29.95 "HgN/A
3:20 AM50 °FClear.3 mph94%29.95 "HgN/A
2:50 AM50 °FClear.3 mph94%29.98 "HgN/A
2:20 AM50 °FClear.1 mph94%29.98 "HgN/A
1:50 AM50 °FClear.1 mph94%29.98 "Hg10 mi
1:20 AM50 °FClear.2 mph94%29.98 "Hg10 mi
12:50 AM52 °FClear.1 mph88%29.98 "HgN/A
12:20 AM52 °FClear.1 mph88%29.98 "HgN/A
11:50 PM
Fri, Sep 30
52 °FClear.2 mph94%29.98 "Hg10 mi
11:20 PM52 °FClear.3 mph94%30.01 "HgN/A
10:50 PM54 °FPassing clouds.2 mph88%30.01 "HgN/A
10:20 PM55 °FClear.1 mph82%30.01 "Hg10 mi
9:50 PM55 °FClear.7 mph82%30.01 "Hg10 mi
9:20 PM54 °FClear.9 mph88%30.01 "Hg10 mi
8:50 PM55 °FClear.8 mph82%30.01 "Hg10 mi
8:20 PM57 °FClear.2 mph77%30.01 "Hg10 mi
7:50 PM59 °FClear.2 mph77%30.01 "Hg10 mi
7:20 PM61 °FClear.1 mph72%29.98 "Hg10 mi
6:50 PM66 °FSunny.3 mph60%29.98 "Hg10 mi
6:20 PM70 °FSunny.3 mph53%30.01 "Hg10 mi
5:50 PM73 °FSunny.3 mph44%30.01 "Hg10 mi
5:20 PM73 °FSunny.5 mph41%30.01 "Hg10 mi
4:50 PM75 °FPassing clouds.6 mph36%30.01 "HgN/A
4:20 PM75 °FPassing clouds.7 mph39%30.01 "HgN/A
3:50 PM75 °FPassing clouds.9 mph36%30.01 "HgN/A
3:20 PM73 °FSunny.14 mph44%30.04 "Hg10 mi
2:50 PM73 °FPassing clouds.6 mph44%30.04 "HgN/A
2:20 PM72 °FSunny.8 mph50%30.04 "Hg10 mi
1:50 PM72 °FSunny.2 mph53%30.07 "Hg10 mi
1:20 PM70 °FSunny.2 mph53%30.07 "Hg10 mi
12:50 PM66 °FSunny.2 mph56%30.07 "Hg10 mi
12:20 PM66 °FSunny.2 mph56%30.09 "Hg10 mi
11:50 AM64 °FSunny.1 mph60%30.09 "Hg10 mi
11:20 AM63 °FPassing clouds.5 mph68%30.09 "HgN/A
10:50 AM61 °FSunny.5 mph72%30.12 "Hg10 mi
10:20 AM59 °FSunny.5 mph77%30.12 "Hg10 mi
9:50 AM55 °FSunny.5 mph82%30.12 "Hg10 mi
9:20 AM52 °FSunny.2 mph94%30.12 "Hg10 mi
8:50 AM48 °FSunny.2 mph94%30.12 "Hg10 mi
8:20 AM45 °FPassing clouds.2 mph100%30.12 "HgN/A
7:50 AM43 °FFog.2 mph100%30.12 "HgN/A
7:20 AM45 °FPassing clouds.3 mph100%30.12 "HgN/A
6:50 AM43 °FPassing clouds.2 mph100%30.12 "HgN/A
6:20 AM45 °FPassing clouds.3 mph100%30.12 "HgN/A
5:50 AM43 °FFog.2 mph100%30.12 "HgN/A
5:20 AM43 °FQuite cool.1 mph100%30.12 "Hg6 mi
Weather by CustomWeather, © 2016

See weather overviewHow to use our weather pages